Weather History for Henderson, TX

Change the Weather History Date:

Sunday, November 25, 2012

  Actual Average (KGGG) Record (KGGG)
Temperature  
Mean Temperature 50 °F 53 °F  
Max Temperature 69 °F 64 °F 86 °F (1910)
Min Temperature 32 °F 42 °F 21 °F (1938)
Degree Days  
Heating Degree Days 14 12  
Month to date heating degree days 213  
Since 1 July heating degree days 302  
Cooling Degree Days 0 0  
Month to date cooling degree days 22  
Year to date cooling degree days 2417  
Moisture  
Dew Point 38 °F    
Average Humidity 64    
Maximum Humidity 93    
Minimum Humidity 30    
Precipitation  
Precipitation 0.00 in 0.16 in 3.10 in (1946)
Month to date precipitation 3.69  
Year to date precipitation 42.26  
Snow  
Snow 0.00 in - - ()
Month to date snowfall  
Since 1 July snowfall  
Since 1 September snowfall  
Snow Depth -    
Sea Level Pressure  
Sea Level Pressure 30.03 in    
Wind  
Wind Speed 3 mph (South)    
Max Wind Speed 12 mph    
Max Gust Speed 20 mph    
Visibility 10 miles    
Events      
T = Trace of Precipitation, MM = Missing Value Source: NWS Daily Summary

Daily Weather History Graph

Daily Weather History Graph

Search for Another Location

Airport:

Trip Planner

Search our weather history database for the weather conditions in past years. The results will help you decide how hot, cold, wet, or windy it might be!

Date:

Astronomy

Nov. 25, 2012 Rise Set
Actual Time 6:57 AM CST 5:15 PM CST
Civil Twilight 6:31 AM CST 5:41 PM CST
Nautical Twilight 6:01 AM CST 6:11 PM CST
Astronomical Twilight 5:31 AM CST 6:41 PM CST
Moon 3:27 PM CST (11/25) 4:19 AM CST (11/25)
Length of Visible Light 11h 10m
Length of Day
10h 17m
Waxing Gibbous, 93% of the Moon is Illuminated
Nov 25
Waxing Gibbous
Nov 28
Full
Dec 6
Last Quarter
Dec 13
New
Dec 19
First Quarter

Hourly Weather History & Observations

Time (CST) Temp. Windchill Dew Point Humidity Pressure Visibility Wind Dir Wind Speed Gust Speed Precip Events Conditions
12:35 AM 33.8 °F - 30.2 °F 87% 30.15 in 10.0 mi Calm Calm - N/A   Clear
12:55 AM 33.8 °F - 30.2 °F 87% 30.15 in 10.0 mi Calm Calm - N/A   Clear
1:15 AM 33.8 °F - 30.2 °F 87% 30.14 in 10.0 mi Calm Calm - N/A   Clear
1:35 AM 32.0 °F - 30.2 °F 93% 30.14 in 10.0 mi Calm Calm - N/A   Clear
2:15 AM 32.0 °F - 30.2 °F 93% 30.13 in 10.0 mi Calm Calm - N/A   Clear
2:35 AM 32.0 °F - 30.2 °F 93% 30.12 in 10.0 mi Calm Calm - N/A   Clear
2:55 AM 32.0 °F - 30.2 °F 93% 30.11 in 10.0 mi Calm Calm - N/A   Clear
3:15 AM 32.0 °F - 30.2 °F 93% 30.11 in 10.0 mi Calm Calm - N/A   Clear
3:35 AM 32.0 °F - 30.2 °F 93% 30.11 in 10.0 mi Calm Calm - N/A   Clear
3:55 AM 32.0 °F - 30.2 °F 93% 30.11 in 10.0 mi Calm Calm - N/A   Clear
4:15 AM 32.0 °F - 30.2 °F 93% 30.11 in 10.0 mi Calm Calm - N/A   Clear
4:35 AM 32.0 °F - 30.2 °F 93% 30.10 in 10.0 mi Calm Calm - N/A   Clear
4:55 AM 32.0 °F - 30.2 °F 93% 30.10 in 10.0 mi Calm Calm - N/A   Clear
5:15 AM 32.0 °F - 30.2 °F 93% 30.09 in 10.0 mi Calm Calm - N/A   Clear
5:35 AM 32.0 °F - 30.2 °F 93% 30.09 in 10.0 mi Calm Calm - N/A   Clear
5:55 AM 32.0 °F - 30.2 °F 93% 30.09 in 10.0 mi Calm Calm - N/A   Clear
6:35 AM 32.0 °F - 30.2 °F 93% 30.09 in 10.0 mi Calm Calm - N/A   Clear
6:55 AM 32.0 °F - 30.2 °F 93% 30.09 in 10.0 mi Calm Calm - N/A   Clear
7:15 AM 32.0 °F - 30.2 °F 93% 30.10 in 10.0 mi Calm Calm - N/A   Clear
7:35 AM 33.8 °F - 32.0 °F 93% 30.10 in 10.0 mi Calm Calm - N/A   Clear
7:55 AM 35.6 °F 32.8 °F 33.8 °F 93% 30.10 in 10.0 mi South 3.5 mph - N/A   Clear
8:15 AM 41.0 °F 38.0 °F 33.8 °F 76% 30.10 in 10.0 mi SSE 4.6 mph - N/A   Clear
8:35 AM 42.8 °F 39.3 °F 33.8 °F 70% 30.11 in 10.0 mi South 5.8 mph - N/A   Clear
8:55 AM 46.4 °F 42.9 °F 33.8 °F 62% 30.11 in 10.0 mi South 6.9 mph - N/A   Clear
9:15 AM 50.0 °F - 35.6 °F 58% 30.12 in 10.0 mi South 6.9 mph - N/A   Clear
9:35 AM 51.8 °F - 35.6 °F 54% 30.12 in 10.0 mi South 8.1 mph - N/A   Clear
9:55 AM 53.6 °F - 35.6 °F 51% 30.12 in 10.0 mi South 9.2 mph - N/A   Clear
10:15 AM 57.2 °F - 33.8 °F 41% 30.11 in 10.0 mi South 9.2 mph - N/A   Clear
10:35 AM 59.0 °F - 33.8 °F 39% 30.11 in 10.0 mi South 9.2 mph - N/A   Clear
10:55 AM 59.0 °F - 32.0 °F 36% 30.10 in 10.0 mi South 10.4 mph - N/A   Clear
11:15 AM 60.8 °F - 32.0 °F 34% 30.09 in 10.0 mi South 10.4 mph 17.3 mph N/A   Clear
11:35 AM 62.6 °F - 32.0 °F 32% 30.08 in 10.0 mi SSW 9.2 mph 17.3 mph N/A   Clear
11:55 AM 62.6 °F - 32.0 °F 32% 30.06 in 10.0 mi SSW 8.1 mph - N/A   Clear
12:15 PM 64.4 °F - 32.0 °F 30% 30.05 in 10.0 mi South 9.2 mph - N/A   Clear
12:35 PM 64.4 °F - 33.8 °F 32% 30.03 in 10.0 mi SSW 6.9 mph - N/A   Clear
12:55 PM 64.4 °F - 35.6 °F 34% 30.03 in 10.0 mi SW 9.2 mph - N/A   Clear
1:15 PM 66.2 °F - 35.6 °F 32% 30.01 in 10.0 mi South 10.4 mph - N/A   Clear
1:35 PM 68.0 °F - 37.4 °F 33% 30.00 in 10.0 mi South 8.1 mph - N/A   Clear
1:55 PM 68.0 °F - 37.4 °F 33% 29.98 in 10.0 mi South 10.4 mph - N/A   Clear
2:15 PM 68.0 °F - 37.4 °F 33% 29.98 in 10.0 mi South 9.2 mph 16.1 mph N/A   Clear
2:35 PM 68.0 °F - 39.2 °F 35% 29.97 in 10.0 mi South 9.2 mph 16.1 mph N/A   Clear
2:55 PM 68.0 °F - 41.0 °F 37% 29.97 in 10.0 mi South 10.4 mph 19.6 mph N/A   Clear
3:15 PM 68.0 °F - 41.0 °F 37% 29.96 in 10.0 mi South 11.5 mph - N/A   Clear
3:35 PM 69.8 °F - 41.0 °F 35% 29.96 in 10.0 mi South 10.4 mph - N/A   Clear
3:55 PM 68.0 °F - 42.8 °F 40% 29.95 in 10.0 mi South 10.4 mph - N/A   Clear
4:15 PM 68.0 °F - 42.8 °F 40% 29.95 in 10.0 mi South 11.5 mph - N/A   Clear
4:35 PM 68.0 °F - 42.8 °F 40% 29.95 in 10.0 mi South 8.1 mph - N/A   Clear
4:55 PM 66.2 °F - 42.8 °F 43% 29.95 in 10.0 mi South 5.8 mph - N/A   Clear
5:15 PM 64.4 °F - 44.6 °F 49% 29.95 in 10.0 mi South 3.5 mph - N/A   Clear
5:35 PM 62.6 °F - 44.6 °F 52% 29.95 in 10.0 mi South 4.6 mph - N/A   Clear
5:55 PM 59.0 °F - 44.6 °F 59% 29.95 in 10.0 mi SSE 4.6 mph - N/A   Clear
6:15 PM 59.0 °F - 44.6 °F 59% 29.95 in 10.0 mi Calm Calm - N/A   Clear
6:35 PM 59.0 °F - 44.6 °F 59% 29.95 in 10.0 mi Calm Calm - N/A   Clear
6:55 PM 57.2 °F - 44.6 °F 63% 29.95 in 10.0 mi SSE 4.6 mph - N/A   Clear
7:15 PM 55.4 °F - 44.6 °F 67% 29.95 in 10.0 mi SSE 4.6 mph - N/A   Clear
7:35 PM 55.4 °F - 44.6 °F 67% 29.95 in 10.0 mi South 4.6 mph - N/A   Clear
7:55 PM 55.4 °F - 44.6 °F 67% 29.95 in 10.0 mi South 6.9 mph - N/A   Clear
8:15 PM 57.2 °F - 44.6 °F 63% 29.95 in 10.0 mi South 5.8 mph - N/A   Clear
8:35 PM 55.4 °F - 46.4 °F 72% 29.95 in 10.0 mi South 6.9 mph - N/A   Clear
8:55 PM 57.2 °F - 46.4 °F 67% 29.95 in 10.0 mi South 6.9 mph - N/A   Clear
9:15 PM 59.0 °F - 46.4 °F 63% 29.95 in 10.0 mi South 9.2 mph - N/A   Clear
9:35 PM 59.0 °F - 48.2 °F 67% 29.95 in 10.0 mi South 6.9 mph - N/A   Clear
9:55 PM 59.0 °F - 48.2 °F 67% 29.96 in 10.0 mi South 6.9 mph - N/A   Clear
10:15 PM 59.0 °F - 50.0 °F 72% 29.96 in 10.0 mi South 8.1 mph - N/A   Clear
10:35 PM 59.0 °F - 50.0 °F 72% 29.96 in 10.0 mi South 8.1 mph - N/A   Clear
10:55 PM 59.0 °F - 50.0 °F 72% 29.97 in 10.0 mi South 6.9 mph - N/A   Clear
11:15 PM 59.0 °F - 51.8 °F 77% 29.97 in 10.0 mi South 6.9 mph - N/A   Clear
11:35 PM 59.0 °F - 51.8 °F 77% 29.97 in 10.0 mi South 8.1 mph - N/A   Clear
11:55 PM 57.2 °F - 51.8 °F 82% 29.97 in 10.0 mi South 5.8 mph - N/A   Clear